Location: Unnamed
(48.6007°N, 2.4808°E)
Time: 05:10:14
(UTC+02:00)

SO-50 - Visible Passes

Search period start: 26 March 2023 00:00
Search period end: 05 April 2023 01:00
Orbit: 585 x 692 km, 64.6° (Epoch: 25 March)

Date Brightness Start Highest point End Pass type
(mag) Time Alt. Az. Time Alt. Az. Time Alt. Az.
26 Mar ? 03:02:03 20° NNE 03:02:03 20° NNE 03:03:37 10° NNE visible
26 Mar ? 04:39:34 17° NNW 04:40:11 18° NNW 04:43:32 10° NNE visible
26 Mar ? 06:20:34 10° NNW 06:22:30 12° N 06:24:26 10° NNE visible
27 Mar ? 03:24:44 23° N 03:24:44 23° N 03:27:05 10° NNE visible
27 Mar ? 05:02:14 11° NW 05:04:31 14° NNW 05:07:03 10° NNE visible
27 Mar ? 06:44:33 10° NNW 06:46:56 13° NNE 06:49:18 10° NE visible
28 Mar ? 02:09:52 14° NE 02:09:52 14° NE 02:10:32 10° NE visible
28 Mar ? 03:47:22 21° NNW 03:47:22 21° NNW 03:50:30 10° NNE visible
28 Mar ? 05:26:57 10° NNW 05:28:55 12° N 05:30:54 10° NNE visible
28 Mar ? 07:08:07 10° NNW 07:11:16 17° NNE 07:14:23 10° ENE visible
29 Mar ? 02:32:27 19° NNE 02:32:27 19° NNE 02:34:02 10° NNE visible
29 Mar ? 04:09:58 15° NNW 04:10:59 16° NNW 04:13:55 10° NNE visible
29 Mar ? 05:51:17 10° NNW 05:53:21 12° N 05:55:25 10° NNE visible
30 Mar ? 02:55:01 22° N 02:55:01 22° N 02:57:26 10° NNE visible
30 Mar ? 04:33:07 10° NW 04:35:20 13° N 04:37:32 10° NNE visible
30 Mar ? 06:15:01 10° NNW 06:17:44 15° NNE 06:20:26 10° NE visible
31 Mar ? 01:40:01 15° NNE 01:40:01 15° NNE 01:40:55 10° NNE visible
31 Mar ? 03:17:31 18° NNW 03:17:31 18° NNW 03:20:50 10° NNE visible
31 Mar ? 04:57:49 10° NNW 04:59:44 12° N 05:01:38 10° NNE visible
31 Mar ? 06:38:28 10° NNW 06:41:59 19° NNE 06:45:26 10° ENE visible
01 Apr ? 02:02:27 21° NNE 02:02:27 21° NNE 02:04:21 10° NNE visible
01 Apr ? 03:39:56 12° NW 03:41:43 14° NNW 03:44:18 10° NNE visible
01 Apr ? 05:21:48 10° NNW 05:24:07 13° N 05:26:26 10° NE visible
02 Apr ? 00:47:18 12° NE 00:47:18 12° NE 00:47:44 10° NE visible
02 Apr ? 02:24:47 21° NNW 02:24:47 21° NNW 02:27:43 10° NNE visible
02 Apr ? 04:04:06 10° NNW 04:06:05 12° N 04:08:04 10° NNE visible
02 Apr ? 05:45:20 10° NNW 05:48:26 16° NNE 05:51:29 10° ENE visible
03 Apr ? 01:09:32 20° NNE 01:09:32 20° NNE 01:11:13 10° NNE visible
03 Apr ? 02:47:00 15° NW 02:48:06 16° NNW 02:51:06 10° NNE visible
03 Apr ? 04:28:27 10° NNW 04:30:28 12° N 04:32:29 10° NNE visible
03 Apr ? 06:08:43 10° NNW 06:12:35 23° NNE 06:16:22 10° E visible
03 Apr ? 23:54:07 12° NE 23:54:07 12° NE 23:54:29 10° NE visible
04 Apr ? 01:31:35 24° N 01:31:35 24° N 01:34:35 10° NNE visible
04 Apr ? 03:10:10 10° NW 03:12:25 13° N 03:14:39 10° NNE visible
04 Apr ? 04:52:09 10° NNW 04:54:49 14° NNE 04:57:26 10° NE visible
04 Apr ? 06:32:06 10° NNW 06:36:34 36° NE 06:40:53 10° ESE visible
05 Apr ? 00:15:53 25° NNE 00:15:53 25° NNE 00:18:01 10° NE visible
